Tracking 29892 objects as of 21-Nov-2024
HD Live streaming from Space Station
objects crossing your sky now

ONEWEB-0183

Track ONEWEB-0183 now!
10-day predictions
ONEWEB-0183 is classified as:


NORAD ID: 48219
Int'l Code: 2021-031K
Perigee: 1,211.5 km
Apogee: 1,214.3 km
Inclination: 87.9 °
Period: 109.5 minutes
Semi major axis: 7583 km
RCS: Unknown
Launch date: April 25, 2021
Source: United Kingdom (UK)
Launch site: VOSTOCHNY COSMODROME (VOSTO)
Your satellite tracking list
Your tracking list is empty




NASA's NSSDC Master Catalog

Two Line Element Set (TLE):
1 48219U 21031K   24325.18744878 -.00000002  00000-0 -38676-4 0  9992
2 48219  87.9032  43.8605 0001844 109.3269 250.8061 13.14500325172914
Source of the keplerian elements: AFSPC